Change the Weather History Date:

Sunday, December 7, 2008

  Actual Average Record
Temperature  
Mean Temperature 30 °F -  
Max Temperature 41 °F 38 °F 62 °F (2000)
Min Temperature 19 °F 20 °F -9 °F (1950)
Degree Days  
Heating Degree Days 35    
Moisture  
Dew Point 17 °F    
Average Humidity 60    
Maximum Humidity 74    
Minimum Humidity 49    
Precipitation  
Precipitation 0.00 in - - ()
Sea Level Pressure  
Sea Level Pressure 30.04 in    
Wind  
Wind Speed 8 mph (SE)    
Max Wind Speed 20 mph    
Max Gust Speed 23 mph    
Visibility 10 miles    
Events      
Averages and records for this station are not official NWS values.
T = Trace of Precipitation, MM = Missing Value Source: NWS Daily Summary

Daily Weather History Graph

Daily Weather History Graph

Search for Another Location

Airport or City:

Trip Planner

Search our weather history database for the weather conditions in past years. The results will help you decide how hot, cold, wet, or windy it might be!

Date:

Astronomy

Dec. 07, 2008 Rise Set
Actual Time 7:36 AM CST 5:00 PM CST
Civil Twilight 7:06 AM CST 5:31 PM CST
Nautical Twilight 6:32 AM CST 6:05 PM CST
Astronomical Twilight 5:59 AM CST 6:38 PM CST
Moon 1:20 PM CST (12/7) 1:40 AM CST (12/7)
Length of Visible Light 10h 24m
Length of Day
9h 23m
Waxing Gibbous, 69% of the Moon is Illuminated
Dec 7
Waxing Gibbous
Dec 12
Full
Dec 19
Last Quarter
Dec 27
New
Jan 4
First Quarter

Hourly Weather History & Observations

Time (CST) Temp. Windchill Dew Point Humidity Pressure Visibility Wind Dir Wind Speed Gust Speed Precip Events Conditions
12:10 AM 23.0 °F 15.8 °F 10.4 °F 59% 30.27 in 10.0 mi ESE 5.8 mph - N/A   Overcast
12:30 AM 23.0 °F 15.8 °F 10.4 °F 59% 30.27 in 10.0 mi East 5.8 mph - N/A   Overcast
12:50 AM 23.0 °F 17.0 °F 10.4 °F 59% 30.27 in 10.0 mi East 4.6 mph - N/A   Overcast
1:10 AM 23.0 °F 14.7 °F 10.4 °F 59% 30.25 in 10.0 mi ESE 6.9 mph - N/A   Overcast
1:30 AM 23.0 °F 15.8 °F 10.4 °F 59% 30.24 in 10.0 mi ESE 5.8 mph - N/A   Overcast
1:50 AM 23.0 °F 14.7 °F 10.4 °F 59% 30.21 in 10.0 mi ESE 6.9 mph - N/A   Overcast
2:10 AM 23.0 °F 14.7 °F 10.4 °F 59% 30.19 in 10.0 mi SE 6.9 mph - N/A   Overcast
2:30 AM 23.0 °F 12.4 °F 10.4 °F 59% 30.18 in 10.0 mi SE 10.4 mph - N/A   Mostly Cloudy
2:50 AM 23.0 °F 13.1 °F 10.4 °F 59% 30.17 in 10.0 mi ESE 9.2 mph - N/A   Mostly Cloudy
3:10 AM 23.0 °F 13.9 °F 12.2 °F 63% 30.18 in 10.0 mi SE 8.1 mph - N/A   Mostly Cloudy
3:30 AM 21.2 °F 11.7 °F 10.4 °F 63% 30.18 in 10.0 mi SE 8.1 mph - N/A   Mostly Cloudy
3:50 AM 21.2 °F 13.6 °F 12.2 °F 68% 30.19 in 10.0 mi ESE 5.8 mph - N/A   Scattered Clouds
4:10 AM 21.2 °F 11.7 °F 12.2 °F 68% 30.16 in 10.0 mi ESE 8.1 mph - N/A   Mostly Cloudy
4:30 AM 21.2 °F 10.1 °F 12.2 °F 68% 30.15 in 10.0 mi SE 10.4 mph - N/A   Mostly Cloudy
4:50 AM 21.2 °F 10.9 °F 12.2 °F 68% 30.15 in 10.0 mi SE 9.2 mph - N/A   Mostly Cloudy
5:10 AM 21.2 °F 10.9 °F 12.2 °F 68% 30.15 in 10.0 mi SE 9.2 mph - N/A   Scattered Clouds
5:30 AM 21.2 °F 12.6 °F 12.2 °F 68% 30.15 in 10.0 mi ESE 6.9 mph - N/A   Clear
5:50 AM 21.2 °F 10.9 °F 12.2 °F 68% 30.12 in 10.0 mi SE 9.2 mph - N/A   Clear
6:10 AM 21.2 °F 11.7 °F 10.4 °F 63% 30.12 in 10.0 mi SE 8.1 mph - N/A   Clear
6:30 AM 19.4 °F 9.5 °F 12.2 °F 74% 30.14 in 10.0 mi SE 8.1 mph - N/A   Clear
6:50 AM 19.4 °F 9.5 °F 12.2 °F 74% 30.12 in 10.0 mi SE 8.1 mph - N/A   Clear
7:10 AM 19.4 °F 8.6 °F 12.2 °F 74% 30.12 in 10.0 mi SE 9.2 mph - N/A   Clear
7:30 AM 19.4 °F 9.5 °F 12.2 °F 74% 30.11 in 10.0 mi SE 8.1 mph - N/A   Clear
7:50 AM 19.4 °F 8.6 °F 12.2 °F 74% 30.10 in 10.0 mi SE 9.2 mph 16.1 mph N/A   Clear
8:10 AM 21.2 °F 10.1 °F 12.2 °F 68% 30.08 in 10.0 mi SE 10.4 mph - N/A   Clear
8:30 AM 21.2 °F 8.9 °F 14.0 °F 74% 30.07 in 10.0 mi SE 12.7 mph 18.4 mph N/A   Clear
8:50 AM 23.0 °F 10.6 °F 14.0 °F 68% 30.07 in 10.0 mi SSE 13.8 mph 19.6 mph N/A   Clear
9:10 AM 24.8 °F 12.4 °F 14.0 °F 64% 30.06 in 10.0 mi SSE 15.0 mph 20.7 mph N/A   Clear
9:30 AM 26.6 °F 15.2 °F 15.8 °F 64% 30.06 in 10.0 mi South 13.8 mph 18.4 mph N/A   Clear
9:50 AM 28.4 °F 17.0 °F 15.8 °F 59% 30.05 in 10.0 mi South 15.0 mph 21.9 mph N/A   Clear
10:10 AM 28.4 °F 15.4 °F 17.6 °F 64% 30.03 in 10.0 mi SSE 19.6 mph 23.0 mph N/A   Clear
10:30 AM 30.2 °F 18.1 °F 17.6 °F 60% 30.02 in 10.0 mi South 18.4 mph - N/A   Clear
10:50 AM 32.0 °F 22.5 °F 17.6 °F 55% 30.02 in 10.0 mi South 12.7 mph 21.9 mph N/A   Clear
11:10 AM 32.0 °F 21.6 °F 19.4 °F 60% 30.01 in 10.0 mi South 15.0 mph 19.6 mph N/A   Clear
11:30 AM 33.8 °F 23.5 °F 19.4 °F 56% 30.00 in 10.0 mi South 16.1 mph - N/A   Clear
11:50 AM 35.6 °F 25.5 °F 19.4 °F 52% 29.98 in 10.0 mi South 17.3 mph 20.7 mph N/A   Clear
12:10 PM 35.6 °F 25.5 °F 19.4 °F 52% 29.96 in 10.0 mi South 17.3 mph - N/A   Clear
12:30 PM 35.6 °F 27.1 °F 21.2 °F 56% 29.95 in 10.0 mi South 12.7 mph 17.3 mph N/A   Clear
12:50 PM 37.4 °F 29.3 °F 21.2 °F 52% 29.94 in 10.0 mi South 12.7 mph - N/A   Clear
1:10 PM 39.2 °F 32.0 °F 21.2 °F 49% 29.92 in 10.0 mi South 11.5 mph - N/A   Clear
1:30 PM 37.4 °F 30.3 °F 21.2 °F 52% 29.91 in 10.0 mi SSE 10.4 mph - N/A   Clear
1:50 PM 41.0 °F 33.9 °F 23.0 °F 49% 29.89 in 10.0 mi South 12.7 mph - N/A   Clear
2:10 PM 41.0 °F 34.7 °F 23.0 °F 49% 29.88 in 10.0 mi SSW 10.4 mph - N/A   Clear
2:30 PM 41.0 °F 37.1 °F 23.0 °F 49% 29.87 in 10.0 mi South 5.8 mph - N/A   Clear
2:50 PM 41.0 °F 37.1 °F 23.0 °F 49% 29.87 in 10.0 mi South 5.8 mph - N/A   Clear
3:10 PM 41.0 °F 35.8 °F 23.0 °F 49% 29.86 in 10.0 mi South 8.1 mph - N/A   Clear
3:30 PM 41.0 °F 37.1 °F 23.0 °F 49% 29.86 in 10.0 mi South 5.8 mph - N/A   Clear
3:50 PM 41.0 °F 38.0 °F 23.0 °F 49% 29.85 in 10.0 mi SSE 4.6 mph - N/A   Clear
4:10 PM 41.0 °F 39.0 °F 24.8 °F 53% 29.84 in 10.0 mi SE 3.5 mph - N/A   Scattered Clouds
4:30 PM 41.0 °F 39.0 °F 23.0 °F 49% 29.84 in 10.0 mi East 3.5 mph - N/A   Scattered Clouds
4:50 PM 41.0 °F - 23.0 °F 49% 29.85 in 10.0 mi Calm Calm - N/A   Mostly Cloudy
5:10 PM 39.2 °F 35.9 °F 24.8 °F 56% 29.85 in 10.0 mi NE 4.6 mph - N/A   Overcast
5:30 PM 37.4 °F 33.8 °F 24.8 °F 60% 29.84 in 10.0 mi ENE 4.6 mph - N/A   Overcast
5:50 PM 37.4 °F - 24.8 °F 60% 29.84 in 10.0 mi Calm Calm - N/A   Scattered Clouds
6:10 PM 37.4 °F 34.9 °F 24.8 °F 60% 29.84 in 10.0 mi ESE 3.5 mph - N/A   Scattered Clouds
6:30 PM 37.4 °F 33.8 °F 24.8 °F 60% 29.83 in 10.0 mi NE 4.6 mph - N/A   Mostly Cloudy
6:50 PM 37.4 °F 33.8 °F 24.8 °F 60% 29.84 in 10.0 mi NE 4.6 mph - N/A   Scattered Clouds
7:10 PM 37.4 °F 32.1 °F 24.8 °F 60% 29.85 in 10.0 mi NE 6.9 mph - N/A   Clear
7:30 PM 37.4 °F 33.8 °F 24.8 °F 60% 29.85 in 10.0 mi ENE 4.6 mph - N/A   Scattered Clouds
7:50 PM 37.4 °F 33.8 °F 24.8 °F 60% 29.84 in 10.0 mi East 4.6 mph - N/A   Scattered Clouds
8:10 PM 37.4 °F 32.8 °F 24.8 °F 60% 29.83 in 10.0 mi ESE 5.8 mph - N/A   Scattered Clouds
8:30 PM 37.4 °F 33.8 °F 24.8 °F 60% 29.84 in 10.0 mi SE 4.6 mph - N/A   Overcast
8:50 PM 37.4 °F 33.8 °F 26.6 °F 65% 29.83 in 10.0 mi ESE 4.6 mph - N/A   Overcast
9:10 PM 37.4 °F - 26.6 °F 65% 29.82 in 10.0 mi Calm Calm - N/A   Mostly Cloudy
9:30 PM 37.4 °F 33.8 °F 26.6 °F 65% 29.81 in 10.0 mi ESE 4.6 mph - N/A   Mostly Cloudy
9:50 PM 37.4 °F 33.8 °F 26.6 °F 65% 29.80 in 10.0 mi ESE 4.6 mph - N/A   Overcast
10:10 PM 37.4 °F 34.9 °F 26.6 °F 65% 29.80 in 10.0 mi ESE 3.5 mph - N/A   Scattered Clouds
10:30 PM 37.4 °F 33.8 °F 26.6 °F 65% 29.79 in 10.0 mi ESE 4.6 mph - N/A   Scattered Clouds
10:50 PM 35.6 °F 32.8 °F 26.6 °F 70% 29.79 in 10.0 mi East 3.5 mph - N/A   Scattered Clouds
11:10 PM 35.6 °F 32.8 °F 26.6 °F 70% 29.78 in 10.0 mi ESE 3.5 mph - N/A   Scattered Clouds
11:30 PM 35.6 °F - 26.6 °F 70% 29.78 in 10.0 mi Calm Calm - N/A   Scattered Clouds
11:50 PM 35.6 °F - 26.6 °F 70% 29.78 in 10.0 mi Calm Calm - N/A   Scattered Clouds